Regional Weather Roundup
Issued by NWS Portland, ME

Home | Current Version | Previous Version | Text Only | Print | Product List | Glossary On
Versions: 1 2 3 4 5 6 7 8 9 10 11 12 13 14 15 16 17 18 19 20 21 22 23 24 25 26 27 28 29 30 31 32 33 34 35 36 37 38 39 40 41 42 43 44 45 46 47 48 49 50
000
ASUS41 KGYX 300910
RWRGYX
WEATHER ROUNDUP FOR MAINE AND NEW HAMPSHIRE
NATIONAL WEATHER SERVICE GRAY ME
500 AM EDT TUE JUN 30 2015

MEZ002-005-006-010-012-015-018-020-021-024-026-027-029-301000-
MAINE

CITY           SKY/WX    TMP DP  RH WIND       PRES   REMARKS
PORTLAND       CLOUDY    62  60  93 SW3       29.95R
SANFORD        MOCLDY    57  52  82 W3        29.96S
BAR HARBOR     CLOUDY    57  57 100 CALM      29.95S
WISCASSET      CLOUDY    58  57  97 CALM      29.96R
ROCKLAND       CLOUDY    57  55  94 CALM      29.93S
FRYEBURG       CLOUDY    60  57  89 W3        29.96R
LEWISTONAUBURN CLOUDY    59  55  88 CALM      29.95S
AUGUSTA        CLOUDY    60  58  92 CALM      29.95R
BANGOR         CLOUDY    58  56  93 CALM      29.95R
GREENVILLE       N/A     53  51  93 CALM      29.93R
MILLINOCKET    CLOUDY    55  52  89 CALM      29.94R
HOULTON        CLOUDY    56  52  86 SW3       29.90R
PRESQUE ISLE   CLOUDY    55  52  88 SW5       29.90R
FRENCHVILLE    CLOUDY    51  49  92 CALM      29.89R
CARIBOU        CLOUDY    56  53  90 CALM      29.88R
$$

NHZ002-005-008-009-011-012-014-301000-
NEW HAMPSHIRE

CITY           SKY/WX    TMP DP  RH WIND       PRES   REMARKS
PORTSMOUTH     PTCLDY    58  57  94 W5        29.94S
ROCHESTER      PTCLDY    57  55  93 CALM      29.95R
NASHUA         MOCLDY    59  57  92 CALM      29.97S
MANCHESTER     PTCLDY    60  57  89 CALM      29.95S
CONCORD        CLEAR     55  53  93 CALM      29.97R
LACONIA        PTCLDY    57  54  88 CALM      29.97R
PLYMOUTH       CLOUDY    55  55 100 CALM      29.98R
BERLIN         PTCLDY    54  52  93 CALM      29.98R
WHITEFIELD     MOCLDY    53  51  93 CALM      29.98R
JAFFREY        PTCLDY    53  51  93 CALM      29.99S
KEENE          PTCLDY    54  50  87 CALM      29.98S
LEBANON        FOG       58  56  93 CALM      29.97R VSB 1/2
MT WASHINGTON  FOG       41  41 100 NW20G29     N/A  VSB 1/16
$$

VTZ005-007-008-301000-
VERMONT

CITY           SKY/WX    TMP DP  RH WIND       PRES   REMARKS
ST JOHNSBURY     N/A     57  54  89 MISG      29.96R
BURLINGTON     CLEAR     55  52  89 E3        29.95S
$$

MAZ007-012-024-CTZ003-RIZ002-NYZ038-NYZ072-301000-
SOUTHERN NEW ENGLAND AND NY

CITY           SKY/WX    TMP DP  RH WIND       PRES   REMARKS
BOSTON         CLEAR     60  58  92 SW5       29.97S
WORCESTER      CLEAR     57  54  89 SW5       29.98S
NANTUCKET      CLEAR     63  60  90 SW6       30.00R
PROVIDENCE     PTCLDY    60  58  92 CALM      29.98S
HARTFORD       MOCLDY    59  57  93 N3        29.96S
ALBANY         MOCLDY    58  55  90 CALM      29.97R
NEW YORK CITY  PTCLDY    69  58  67 CALM      29.94F
$$

ANZ081-ANZ082-ANZ150-NHZ014-MEZ023>029-301000-
COASTAL MARINE OBSERVATIONS

STATION/POSITION TIME  TEMP    WIND        PRES    WAVE
                       AIR SEA DIR/SP/G            HT/PER
                 (UTC) (F)     (DEG/KT/KT) (MB)    (FT/S)
MOUNT DESERT ROC 0900   54     200/  5/  5 1014.5R
MATINICUS ROCK   0900   57     210/  3/  3 1013.8R
ISLE OF SHOALS   0900   62     260/  9/  9 1013.9R
JEFFREYS LEDGE   0803      57                N/A     4/ 9
CASHES LEDGE BUO 0850   58 54              1014.1R   7/ 8
GEORGES BANK BUO 0850   61 57  230/  4/  6 1016.7S   6/ 9
$$

.............KEY..............
   WCI - WIND CHILL
   TC  - TEMPERATURE IN CELSIUS
   VSB - VISIBILITY IN MILES
   HX  - HEAT INDEX
   FAIR- INDICATES FEW OR NO CLOUDS BELOW 12,000 FT, WITH NO
         SIGNIFICANT WEATHER AND/OR OBSTRUCTIONS TO VISIBILITY.




USA.gov is the U.S. government's official web portal to all federal, state and local government web resources and services.